Regional Weather Roundup
Issued by NWS Albany, NY

Home | Current Version | Previous Version | Text Only | Print | Product List | Glossary On
Versions: 1 2 3 4 5 6 7 8 9 10 11 12 13 14 15 16 17 18 19 20 21 22 23 24 25 26 27 28 29 30 31 32 33 34 35 36 37 38 39 40 41 42 43 44 45 46 47 48 49 50
000
ASUS41 KALY 261510
RWRALY

NEW YORK STATE HOURLY WEATHER ROUNDUP
NATIONAL WEATHER SERVICE ALBANY NY
1100 AM EDT THU MAR 26 2015

NOTE: "FAIR" INDICATES FEW OR NO CLOUDS BELOW 12,000 FEET WITH NO
SIGNIFICANT WEATHER AND/OR NO OBSTRUCTIONS TO VISIBILITY.

NYZ032-033-038>043-046>054-057>066-NYZ062>081-261600-
EAST


CITY           SKY/WX    TMP DP  RH WIND       PRES   REMARKS
ALBANY         LGT RAIN  41  36  82 S7        29.87F FOG
GLENS FALLS    NOT AVBL
POUGHKEEPSIE   CLOUDY    45  39  79 S3        29.90F
NEWBURGH       CLOUDY    45  41  87 SW6       29.91F FOG
MONTGOMERY     CLOUDY    43  40  89 S3        29.88F FOG
WHITE PLAINS   FOG       44  42  93 SE5       29.91F VSB 1
ISLIP          LGT RAIN  46  45  96 S3        29.92F FOG
NEW YORK CITY  CLOUDY    48  43  82 VRB5      29.92F HAZE
CENTRAL PARK   CLOUDY    49  44  83 W5        29.94F HAZE
$$

NYZ005>009-017-018-044>046-055-056-261600-
CENTRAL


CITY           SKY/WX    TMP DP  RH WIND       PRES   REMARKS
FULTON         CLOUDY    40  32  73 CALM      29.87S
SYRACUSE       CLOUDY    40  34  79 CALM      29.87R
ROME           CLOUDY    36  35  96 CALM      29.87F
ELMIRA         LGT RAIN  35  35 100 VRB5G17   29.86R FOG     WCI  31
BINGHAMTON     LGT RAIN  37  36  96 VRB3      29.82S FOG
MONTICELLO     CLOUDY    43  39  87 SE3       29.87F
$$

NYZ026>034-041>043-261600-
NORTH


CITY           SKY/WX    TMP DP  RH WIND       PRES   REMARKS
WATERTOWN      LGT RAIN  41  34  76 SW3       29.86F
FORT DRUM      NOT AVBL
MASSENA        CLOUDY    41  33  73 SW13      29.84F
SARANAC LAKE   CLOUDY    36  30  79 SW9       29.79F WCI  29
PLATTSBURGH    PTSUNNY   47  35  63 VRB7      29.82F
$$

NYZ001>004-010>016-019>021-261600-
WEST


CITY           SKY/WX    TMP DP  RH WIND       PRES   REMARKS
NIAGARA FALLS  SNOW      32  31  96 CALM      29.84F VSB 1/2
BUFFALO        LGT SNOW  35  32  88 CALM      29.84F
DUNKIRK        LGT SNOW  33  32  96 CALM      29.85F VSB 3/4
JAMESTOWN      CLOUDY    34  32  93 MISG      29.79F
WELLSVILLE     LGT RAIN  38  36  92 NE7       29.78F VSB 3/4 WCI  33
ROCHESTER      LGT RAIN  39  34  82 VRB3      29.85F
PENN YAN       LGT RAIN  40  36  86 NW3       29.87R FOG
$$

             KEY
       WCI = WIND CHILL INDEX
       VSB = VISIBILITY
       HX  = HEAT INDEX
$$


USA.gov is the U.S. government's official web portal to all federal, state and local government web resources and services.